Home   Weather   Germering   Past weeks

Flag for Germany Past Weather in Germering, Bavaria, Germany — Yesterday and Last 2 Weeks

Now
41 °F

Clear.


Feels Like: 33 °F
Forecast: 35 / 45 °F
Wind: 14 mph from West

Location: Oberpfaffenhofen

Current Time: Mar 1, 2017 at 7:13:18 pm

Latest Report: Mar 1, 2017 at 6:50 pm


Visibility: 10 mi

Pressure: 29.80 "Hg (27.89 "Hg at 538m altitude)

Humidity: 70%

Dew Point: 32 °F

Location of GermeringLocation

Past Weather in Germering — Graph

°F

Germering Temperature Yesterday

Maximum temperature yesterday: 39 °F (at 6:20 pm)
Minimum temperature yesterday: 32 °F (at 8:20 am)
Average temperature yesterday: 36 °F

High & Low Weather Summary for the Past Weeks

 TemperatureHumidityPressure
High66 °F (Feb 23, 12:50 pm)100% (Feb 15, 6:50 am)30.54 "Hg (Feb 15, 6:50 am)
Low21 °F (Feb 15, 7:50 am)19% (Feb 23, 12:20 pm)29.39 "Hg (Feb 28, 3:50 pm)
Average43 °F71%30.03 "Hg
* Reported Feb 14 6:20 pm — Mar 1 6:20 pm, Germering, Weather by CustomWeather, © 2017

Note: Actual official high and low records may vary slightly from our data, if they occured in-between our weather recording intervals... More about our weather records

Advertising

Germering Weather History for the Previous 24 Hours

Scroll right to see more
 ConditionsComfort  
Time TempWeatherWind HumidityBarometerVisibility
6:20 pm
Wed, Mar 1
41 °FPassing clouds.15 mph70%29.80 "HgN/A
5:50 pm43 °FBroken clouds.22 mph61%29.80 "HgN/A
5:20 pm43 °FBroken clouds.16 mph61%29.80 "HgN/A
4:50 pm45 °FBroken clouds.20 mph57%29.80 "HgN/A
4:20 pm45 °FBroken clouds.18 mph57%29.80 "HgN/A
3:50 pm45 °FBroken clouds.20 mph53%29.80 "HgN/A
3:20 pm45 °FBroken clouds.18 mph53%29.80 "HgN/A
2:50 pm45 °FBroken clouds.23 mph53%29.80 "HgN/A
2:20 pm45 °FPartly sunny.23 mph53%29.80 "HgN/A
1:50 pm45 °FPartly sunny.23 mph53%29.80 "HgN/A
1:20 pm43 °FPartly sunny.23 mph57%29.80 "HgN/A
12:50 pm43 °FPartly sunny.24 mph57%29.80 "HgN/A
12:20 pm43 °FPartly sunny.26 mph57%29.80 "HgN/A
11:50 am43 °FPartly sunny.23 mph61%29.80 "HgN/A
11:20 am41 °FPartly sunny.24 mph66%29.77 "HgN/A
10:50 am43 °FPartly sunny.18 mph61%29.77 "HgN/A
10:20 am41 °FPartly sunny.22 mph66%29.77 "HgN/A
9:50 am39 °FPartly sunny.24 mph70%29.77 "HgN/A
9:20 am39 °FScattered clouds.21 mph75%29.74 "HgN/A
8:50 am37 °FScattered clouds.21 mph75%29.74 "HgN/A
8:20 am37 °FScattered clouds.21 mph70%29.71 "HgN/A
7:50 am37 °FScattered clouds.18 mph65%29.71 "HgN/A
7:20 am36 °FSunny.14 mph70%29.68 "Hg10 mi
6:50 am36 °FClear.16 mph70%29.68 "Hg10 mi
7:50 pm
Tue, Feb 28
37 °FPartly cloudy.14 mph81%29.53 "HgN/A
7:20 pm37 °FPartly cloudy.14 mph81%29.53 "HgN/A
Weather by CustomWeather, © 2017

See weather overviewHow to use our weather pages